Погода в Птолемаиде

Греция     40°30′38″N   21°40′53″E
темп.,
°C
ветер,
м/с
пор.,
м/с
влажн.,
%
обл.,
%
осадки,
мм/ч
давл.,
гПа
погр.,
м
11 мая, вт
вт1100:00+11ююв119177 0.0 102011
03:00+9ююв11915 0.0 101911
06:00+9ююв11900 0.0 101810
09:00+14ю11780 0.0 1018315
12:00+18ю22624 0.0 1016981
15:00+21ю125448 0.0 10151455
18:00+20юв225766 0.0 10131061
21:00+14ююв12864 0.0 101314
12 мая, ср
ср1200:00+12ююв22900 0.0 101415
03:00+10ююв22900 0.0 101321
06:00+9ююв229158 0.0 101124
09:00+14ю3379100 0.0 1010335
12:00+18ю346264 0.0 1009960
15:00+21ююз574449 0.0 10072354
18:00+18зюз475778 0.0 1006485
21:00+13зсз22765 0.3 100720
13 мая, чт
чт1300:00+10сз22841 0.1 100918
03:00+9зсз12770 0.1 100913
06:00+8юз11710 0.0 100812
09:00+14зюз22584 0.0 1008293
12:00+17з33495 0.0 10081632
15:00+17сз445597 0.1 1007919
18:00+17сз2452100 0.1 1007808
21:00+14юз2260100 0.1 100832
14 мая, пт
пт1400:00+11зюз22667 0.0 100922
03:00+9юз12781 0.0 101116
06:00+7юз11840 0.0 101216
09:00+13юз23661 0.0 1013388
12:00+17з46473 0.0 10131514
15:00+19юз354136 0.0 10132203
18:00+19зсз234034 0.0 10121900
21:00+13зюз1164100 0.0 101411
15 мая, сб
сб1500:00+11ююз117310 0.0 101613
03:00+9ююз11729 0.0 101611
06:00+9ююз1168100 0.0 101512
09:00+14ю225595 0.0 1015234
12:00+18ююв2349100 0.2 1014978
15:00+17ююв2458100 0.4 10121054
18:00
21:00+15з2556100 0.3 1009150